Tracking 29892 objects as of 21-Nov-2024
HD Live streaming from Space Station
objects crossing your sky now

STARLINK-1765

Track STARLINK-1765 now!
10-day predictions
STARLINK-1765 is classified as:


NORAD ID: 46344
Int'l Code: 2020-062V
Perigee: 553.2 km
Apogee: 555.3 km
Inclination: 53.1 °
Period: 95.6 minutes
Semi major axis: 6925 km
RCS: Unknown
Launch date: September 3, 2020
Source: United States (US)
Launch site: AIR FORCE EASTERN TEST RANGE (AFETR)
Your satellite tracking list
Your tracking list is empty




NASA's NSSDC Master Catalog

Two Line Element Set (TLE):
1 46344U 20062V   24325.41209883  .00015450  00000-0  10525-2 0  9992
2 46344  53.0543 325.7322 0001516  85.2101 274.9061 15.06446231233107
Source of the keplerian elements: AFSPC